HISTORICAL SENSOR DATA

Sensor Data Report

DB LIVE
CURRENT TIME--:--:--
DEVICE NETWORK Gateway Status
13 ESP · realtime ~1s · history 60s
Weather WS-MOD-01
ONLINE
Actuator ACT-MOD-01
OFFLINE
Mainboard L3 MB-L3-01
ONLINE
Mainboard L5 MB-L5-01
ONLINE
Remote AC AC-REMOTE-01
ONLINE
PZEM L3-01 PWR-L3-01
OFFLINE
PZEM L3-02 PWR-L3-02
OFFLINE
PZEM L3-03 PWR-L3-03
OFFLINE
PZEM L3-04 PWR-L3-04
OFFLINE
PZEM L5-01 PWR-L5-01
ONLINE
PZEM L5-02 PWR-L5-02
ONLINE
PZEM L5-03 PWR-L5-03
OFFLINE
PZEM L5-04 PWR-L5-04
OFFLINE
REPORT FILTER

Periode & Sensor

DATABASE HISTORY
RESET
QUICK RANGE Hari ini 7 hari 30 hari
PERIODE08 Aug 2026sampai 06 Sep 2026
TOTAL DATA67,817sensor readings
MINIMUM-0.50sesuai filter
AVERAGE84.86sesuai filter
MAXIMUM32,564.20sesuai filter
REPORT RESULT

Data Sensor

08/08/2026 — 06/09/2026 EXPORT CSV
NOTANGGALWAKTUDEVICECHANNELSENSORVALUEUNIT
601 06/09/2026 23:51:00 MB-L3-01Mainboard Lantai 3 L3-AI-03 Analog Input 3 3.12 V
602 06/09/2026 23:51:00 WS-MOD-01Weather Station Module WS-WIND Kecepatan Angin 6.58 m/s
603 06/09/2026 23:51:00 PWR-L5-01Power Meter L5 PZEM 01 PZEM-L5-01-CURR PZEM L5-01 Current 0.12 A
604 06/09/2026 23:51:00 MB-L5-01Mainboard Lantai 5 L5-ST-02 Surface Temperature 2 23.30 °C
605 06/09/2026 23:51:00 MB-L5-01Mainboard Lantai 5 L5-SHT-01-RH SHT20 1 Humidity 46.00 %RH
606 06/09/2026 23:51:00 PWR-L5-02Power Meter L5 PZEM 02 PZEM-L5-02-CURR PZEM L5-02 Current 0.00 A
607 06/09/2026 23:51:00 MB-L3-01Mainboard Lantai 3 L3-LUX-06 Illuminance / LUX 6 0.30 lux
608 06/09/2026 23:50:00 PWR-L5-02Power Meter L5 PZEM 02 PZEM-L5-02-VOLT PZEM L5-02 Voltage 224.40 V
609 06/09/2026 23:50:00 MB-L5-01Mainboard Lantai 5 L5-AI-06 Analog Input 6 3.05 V
610 06/09/2026 23:50:00 AC-REMOTE-01Remote AC AC-POWER AC Power State 1.00 state
611 06/09/2026 23:50:00 MB-L3-01Mainboard Lantai 3 L3-AI-04 Analog Input 4 3.12 V
612 06/09/2026 23:50:00 MB-L3-01Mainboard Lantai 3 L3-LUX-05 Illuminance / LUX 5 0.30 lux
613 06/09/2026 23:50:00 MB-L5-01Mainboard Lantai 5 L5-RAD-02 Radiation 2 1.00 W/m²
614 06/09/2026 23:50:00 MB-L5-01Mainboard Lantai 5 L5-HFT-01 Heat Flow Temperature 1 23.90 °C
615 06/09/2026 23:50:00 MB-L5-01Mainboard Lantai 5 L5-LUX-04 Illuminance / LUX 4 0.10 lux
616 06/09/2026 23:50:00 WS-MOD-01Weather Station Module WS-RH Kelembapan Udara 77.40 %RH
617 06/09/2026 23:50:00 MB-L5-01Mainboard Lantai 5 L5-RAD-01 Radiation 1 1.00 W/m²
618 06/09/2026 23:50:00 MB-L5-01Mainboard Lantai 5 L5-AI-01 Analog Input 1 3.05 V
619 06/09/2026 23:50:00 MB-L5-01Mainboard Lantai 5 L5-LUX-02 Illuminance / LUX 2 0.10 lux
620 06/09/2026 23:50:00 PWR-L5-01Power Meter L5 PZEM 01 PZEM-L5-01-FREQ PZEM L5-01 Frequency 50.00 Hz
621 06/09/2026 23:50:00 PWR-L5-02Power Meter L5 PZEM 02 PZEM-L5-02-ENERGY PZEM L5-02 Energy 0.04 kWh
622 06/09/2026 23:50:00 MB-L3-01Mainboard Lantai 3 L3-LUX-01 Illuminance / LUX 1 0.20 lux
623 06/09/2026 23:50:00 MB-L5-01Mainboard Lantai 5 L5-LUX-06 Illuminance / LUX 6 0.10 lux
624 06/09/2026 23:50:00 MB-L3-01Mainboard Lantai 3 L3-AI-02 Analog Input 2 3.12 V
625 06/09/2026 23:50:00 MB-L5-01Mainboard Lantai 5 L5-AI-04 Analog Input 4 3.05 V
626 06/09/2026 23:50:00 MB-L3-01Mainboard Lantai 3 L3-SHT-01-RH SHT20 1 Humidity 45.50 %RH
627 06/09/2026 23:50:00 MB-L3-01Mainboard Lantai 3 L3-LUX-03 Illuminance / LUX 3 0.20 lux
628 06/09/2026 23:50:00 PWR-L5-01Power Meter L5 PZEM 01 PZEM-L5-01-PF PZEM L5-01 Power Factor 0.39
629 06/09/2026 23:50:00 MB-L3-01Mainboard Lantai 3 L3-SHT-03-T SHT20 3 Temperature 29.00 °C
630 06/09/2026 23:50:00 WS-MOD-01Weather Station Module WS-TEMP Suhu Udara 19.70 °C
631 06/09/2026 23:50:00 AC-REMOTE-01Remote AC AC-FAN AC Fan Speed 0.00 code
632 06/09/2026 23:50:00 MB-L5-01Mainboard Lantai 5 L5-BGT-03 Black Globe Temperature 3 26.50 °C
633 06/09/2026 23:50:00 MB-L5-01Mainboard Lantai 5 L5-ST-01 Surface Temperature 1 24.10 °C
634 06/09/2026 23:50:00 MB-L5-01Mainboard Lantai 5 L5-LUX-01 Illuminance / LUX 1 0.00 lux
635 06/09/2026 23:50:00 WS-MOD-01Weather Station Module WS-DIR Arah Angin 61.50 °
636 06/09/2026 23:50:00 MB-L3-01Mainboard Lantai 3 L3-RAD-02 Radiation 2 0.00 W/m²
637 06/09/2026 23:50:00 MB-L3-01Mainboard Lantai 3 L3-AI-05 Analog Input 5 3.12 V
638 06/09/2026 23:50:00 MB-L5-01Mainboard Lantai 5 L5-HFT-02 Heat Flow Temperature 2 23.00 °C
639 06/09/2026 23:50:00 MB-L3-01Mainboard Lantai 3 L3-LUX-02 Illuminance / LUX 2 0.20 lux
640 06/09/2026 23:50:00 PWR-L5-02Power Meter L5 PZEM 02 PZEM-L5-02-POWER PZEM L5-02 Active Power 0.00 W
641 06/09/2026 23:50:00 MB-L5-01Mainboard Lantai 5 L5-AI-02 Analog Input 2 3.05 V
642 06/09/2026 23:50:00 PWR-L5-01Power Meter L5 PZEM 01 PZEM-L5-01-VOLT PZEM L5-01 Voltage 224.50 V
643 06/09/2026 23:50:00 AC-REMOTE-01Remote AC AC-MODE AC Operating Mode 1.00 code
644 06/09/2026 23:50:00 MB-L3-01Mainboard Lantai 3 L3-SHT-01-T SHT20 1 Temperature 28.60 °C
645 06/09/2026 23:50:00 MB-L3-01Mainboard Lantai 3 L3-SHT-02-T SHT20 2 Temperature 29.00 °C
646 06/09/2026 23:50:00 PWR-L5-02Power Meter L5 PZEM 02 PZEM-L5-02-PF PZEM L5-02 Power Factor 0.00
647 06/09/2026 23:50:00 MB-L5-01Mainboard Lantai 5 L5-BGT-01 Black Globe Temperature 1 26.80 °C
648 06/09/2026 23:50:00 MB-L5-01Mainboard Lantai 5 L5-AI-05 Analog Input 5 3.05 V
649 06/09/2026 23:50:00 MB-L3-01Mainboard Lantai 3 L3-AI-03 Analog Input 3 3.12 V
650 06/09/2026 23:50:00 WS-MOD-01Weather Station Module WS-WIND Kecepatan Angin 3.10 m/s
651 06/09/2026 23:50:00 PWR-L5-01Power Meter L5 PZEM 01 PZEM-L5-01-CURR PZEM L5-01 Current 0.12 A
652 06/09/2026 23:50:00 MB-L5-01Mainboard Lantai 5 L5-ST-02 Surface Temperature 2 23.20 °C
653 06/09/2026 23:50:00 MB-L5-01Mainboard Lantai 5 L5-SHT-01-RH SHT20 1 Humidity 45.80 %RH
654 06/09/2026 23:50:00 PWR-L5-02Power Meter L5 PZEM 02 PZEM-L5-02-CURR PZEM L5-02 Current 0.00 A
655 06/09/2026 23:50:00 MB-L3-01Mainboard Lantai 3 L3-LUX-06 Illuminance / LUX 6 0.30 lux
656 06/09/2026 23:50:00 WS-MOD-01Weather Station Module WS-PRES Tekanan Udara 912.00 hPa
657 06/09/2026 23:50:00 MB-L5-01Mainboard Lantai 5 L5-SHT-02-T SHT20 2 Temperature 29.10 °C
658 06/09/2026 23:50:00 MB-L3-01Mainboard Lantai 3 L3-LUX-04 Illuminance / LUX 4 0.10 lux
659 06/09/2026 23:50:00 AC-REMOTE-01Remote AC AC-SETPOINT AC Set Temperature 23.00 °C
660 06/09/2026 23:50:00 PWR-L5-01Power Meter L5 PZEM 01 PZEM-L5-01-POWER PZEM L5-01 Active Power 10.50 W
661 06/09/2026 23:50:00 MB-L3-01Mainboard Lantai 3 L3-AI-01 Analog Input 1 3.12 V
662 06/09/2026 23:50:00 MB-L5-01Mainboard Lantai 5 L5-SHT-03-RH SHT20 3 Humidity 45.50 %RH
663 06/09/2026 23:50:00 MB-L3-01Mainboard Lantai 3 L3-SHT-02-RH SHT20 2 Humidity 44.80 %RH
664 06/09/2026 23:50:00 MB-L5-01Mainboard Lantai 5 L5-SHT-01-T SHT20 1 Temperature 28.70 °C
665 06/09/2026 23:50:00 MB-L3-01Mainboard Lantai 3 L3-SHT-03-RH SHT20 3 Humidity 45.20 %RH
666 06/09/2026 23:50:00 MB-L5-01Mainboard Lantai 5 L5-LUX-03 Illuminance / LUX 3 0.10 lux
667 06/09/2026 23:50:00 MB-L5-01Mainboard Lantai 5 L5-SHT-03-T SHT20 3 Temperature 29.00 °C
668 06/09/2026 23:50:00 MB-L3-01Mainboard Lantai 3 L3-AI-06 Analog Input 6 3.12 V
669 06/09/2026 23:50:00 MB-L5-01Mainboard Lantai 5 L5-AI-03 Analog Input 3 3.05 V
670 06/09/2026 23:50:00 MB-L5-01Mainboard Lantai 5 L5-SHT-02-RH SHT20 2 Humidity 45.10 %RH
671 06/09/2026 23:50:00 PWR-L5-02Power Meter L5 PZEM 02 PZEM-L5-02-FREQ PZEM L5-02 Frequency 50.00 Hz
672 06/09/2026 23:50:00 MB-L3-01Mainboard Lantai 3 L3-RAD-01 Radiation 1 1.00 W/m²
673 06/09/2026 23:50:00 PWR-L5-01Power Meter L5 PZEM 01 PZEM-L5-01-ENERGY PZEM L5-01 Energy 0.06 kWh
674 06/09/2026 23:50:00 MB-L5-01Mainboard Lantai 5 L5-BGT-02 Black Globe Temperature 2 26.80 °C
675 06/09/2026 23:49:00 MB-L5-01Mainboard Lantai 5 L5-LUX-06 Illuminance / LUX 6 0.10 lux
676 06/09/2026 23:49:00 MB-L3-01Mainboard Lantai 3 L3-AI-02 Analog Input 2 3.12 V
677 06/09/2026 23:49:00 MB-L5-01Mainboard Lantai 5 L5-AI-04 Analog Input 4 3.05 V
678 06/09/2026 23:49:00 MB-L3-01Mainboard Lantai 3 L3-SHT-01-RH SHT20 1 Humidity 45.60 %RH
679 06/09/2026 23:49:00 MB-L3-01Mainboard Lantai 3 L3-LUX-03 Illuminance / LUX 3 0.20 lux
680 06/09/2026 23:49:00 PWR-L5-01Power Meter L5 PZEM 01 PZEM-L5-01-PF PZEM L5-01 Power Factor 0.39
681 06/09/2026 23:49:00 MB-L3-01Mainboard Lantai 3 L3-SHT-03-T SHT20 3 Temperature 29.00 °C
682 06/09/2026 23:49:00 WS-MOD-01Weather Station Module WS-TEMP Suhu Udara 19.70 °C
683 06/09/2026 23:49:00 AC-REMOTE-01Remote AC AC-FAN AC Fan Speed 0.00 code
684 06/09/2026 23:49:00 MB-L5-01Mainboard Lantai 5 L5-BGT-03 Black Globe Temperature 3 26.50 °C
685 06/09/2026 23:49:00 MB-L5-01Mainboard Lantai 5 L5-ST-01 Surface Temperature 1 24.20 °C
686 06/09/2026 23:49:00 MB-L5-01Mainboard Lantai 5 L5-LUX-01 Illuminance / LUX 1 0.00 lux
687 06/09/2026 23:49:00 WS-MOD-01Weather Station Module WS-DIR Arah Angin 97.10 °
688 06/09/2026 23:49:00 MB-L3-01Mainboard Lantai 3 L3-RAD-02 Radiation 2 0.00 W/m²
689 06/09/2026 23:49:00 MB-L3-01Mainboard Lantai 3 L3-AI-05 Analog Input 5 3.12 V
690 06/09/2026 23:49:00 MB-L5-01Mainboard Lantai 5 L5-HFT-02 Heat Flow Temperature 2 23.00 °C
691 06/09/2026 23:49:00 MB-L3-01Mainboard Lantai 3 L3-LUX-02 Illuminance / LUX 2 0.20 lux
692 06/09/2026 23:49:00 PWR-L5-02Power Meter L5 PZEM 02 PZEM-L5-02-POWER PZEM L5-02 Active Power 0.00 W
693 06/09/2026 23:49:00 MB-L5-01Mainboard Lantai 5 L5-AI-02 Analog Input 2 3.05 V
694 06/09/2026 23:49:00 PWR-L5-01Power Meter L5 PZEM 01 PZEM-L5-01-VOLT PZEM L5-01 Voltage 224.60 V
695 06/09/2026 23:49:00 AC-REMOTE-01Remote AC AC-MODE AC Operating Mode 1.00 code
696 06/09/2026 23:49:00 MB-L3-01Mainboard Lantai 3 L3-SHT-01-T SHT20 1 Temperature 28.70 °C
697 06/09/2026 23:49:00 MB-L3-01Mainboard Lantai 3 L3-SHT-02-T SHT20 2 Temperature 28.90 °C
698 06/09/2026 23:49:00 PWR-L5-02Power Meter L5 PZEM 02 PZEM-L5-02-PF PZEM L5-02 Power Factor 0.00
699 06/09/2026 23:49:00 MB-L5-01Mainboard Lantai 5 L5-BGT-01 Black Globe Temperature 1 26.90 °C
700 06/09/2026 23:49:00 MB-L5-01Mainboard Lantai 5 L5-AI-05 Analog Input 5 3.05 V
Menampilkan maksimal 100 data per halaman